| time (UTC) | temp F | wind direction | speed knots | gust knots | rain 1hr in | rain 24hr in | rain mn in | humidity % | barometer mb |
| 20260902065002 | 82 | 50 | 10.4 | 25.2 | 0.00 | 0.00 | 0.00 | 57 | 1013.2 |
| 20260902064002 | 82 | 54 | 7.8 | 16.5 | 0.00 | 0.00 | 0.00 | 56 | 1013.0 |
| 20260902063002 | 82 | 34 | 8.7 | 16.5 | 0.00 | 0.00 | 0.00 | 57 | 1013.0 |
| 20260902062002 | 82 | 35 | 8.7 | 18.2 | 0.00 | 0.00 | 0.00 | 56 | 1012.9 |
| 20260902061002 | 82 | 53 | 7.8 | 18.2 | 0.00 | 0.00 | 0.00 | 50 | 1013.1 |
| 20260902055002 | 82 | 49 | 9.6 | 20.9 | 0.00 | 0.00 | 0.00 | 48 | 1013.0 |
| 20260902053002 | 82 | 59 | 12.2 | 22.6 | 0.00 | 0.00 | 0.00 | 46 | 1013.0 |
| 20260902052002 | 82 | 53 | 8.7 | 16.5 | 0.00 | 0.00 | 0.00 | 49 | 1013.1 |
| 20260902051002 | 81 | 31 | 9.6 | 21.7 | 0.00 | 0.00 | 0.00 | 50 | 1013.1 |
| 20260902050002 | 81 | 18 | 11.3 | 20.9 | 0.00 | 0.00 | 0.00 | 51 | 1013.1 |
| 20260902045001 | 81 | 51 | 7.8 | 17.4 | 0.00 | 0.00 | 0.00 | 48 | 1013.0 |
| 20260902044002 | 82 | 35 | 10.4 | 20.9 | 0.00 | 0.00 | 0.00 | 47 | 1012.9 |
| 20260902043001 | 81 | 28 | 8.7 | 20.0 | 0.00 | 0.00 | 0.00 | 45 | 1012.9 |
| 20260902042001 | 80 | 11 | 7.8 | 16.5 | 0.00 | 0.00 | 0.00 | 52 | 1012.8 |
| 20260902041002 | 80 | 13 | 8.7 | 21.7 | 0.00 | 0.00 | 0.00 | 53 | 1012.6 |
| 20260902040002 | 80 | 23 | 8.7 | 17.4 | 0.00 | 0.00 | 0.00 | 56 | 1012.6 |
| 20260902035002 | 80 | 31 | 8.7 | 17.4 | 0.00 | 0.00 | 0.00 | 51 | 1012.5 |
| 20260902033002 | 80 | 6 | 8.7 | 18.2 | 0.00 | 0.00 | 0.00 | 53 | 1012.3 |
| 20260902032002 | 80 | 18 | 9.6 | 25.2 | 0.00 | 0.00 | 0.00 | 56 | 1012.4 |
| 20260902031002 | 80 | 4 | 10.4 | 20.9 | 0.00 | 0.00 | 0.00 | 58 | 1012.4 |
| 20260902030002 | 80 | 358 | 7.0 | 21.7 | 0.00 | 0.00 | 0.00 | 58 | 1012.2 |
| 20260902025002 | 80 | 10 | 9.6 | 18.2 | 0.00 | 0.00 | 0.00 | 57 | 1012.2 |
| 20260902024002 | 80 | 15 | 7.0 | 17.4 | 0.00 | 0.00 | 0.00 | 57 | 1012.2 |
| 20260902023002 | 80 | 19 | 7.0 | 17.4 | 0.00 | 0.00 | 0.00 | 55 | 1012.3 |
| 20260902022002 | 79 | 4 | 7.8 | 22.6 | 0.00 | 0.00 | 0.00 | 58 | 1012.3 |
| 20260902021002 | 79 | 3 | 8.7 | 17.4 | 0.00 | 0.00 | 0.00 | 58 | 1012.4 |
| 20260902020002 | 80 | 3 | 7.0 | 17.4 | 0.00 | 0.00 | 0.00 | 58 | 1012.5 |
| 20260902014002 | 80 | 3 | 6.1 | 17.4 | 0.00 | 0.00 | 0.00 | 56 | 1012.3 |
| 20260902012002 | 80 | 354 | 7.8 | 17.4 | 0.00 | 0.00 | 0.00 | 58 | 1012.3 |
| 20260902010002 | 80 | 30 | 8.7 | 16.5 | 0.00 | 0.00 | 0.00 | 60 | 1012.2 |
| 20260902005002 | 80 | 50 | 7.0 | 17.4 | 0.00 | 0.00 | 0.00 | 59 | 1012.4 |
| 20260902004002 | 81 | 43 | 7.0 | 17.4 | 0.00 | 0.00 | 0.00 | 54 | 1012.2 |
| 20260902003002 | 81 | 24 | 7.0 | 17.4 | 0.00 | 0.00 | 0.00 | 49 | 1012.3 |
| 20260902002002 | 81 | 48 | 7.0 | 20.0 | 0.00 | 0.00 | 0.00 | 54 | 1012.4 |
| 20260902000002 | 81 | 61 | 7.0 | 21.7 | 0.00 | 0.00 | 0.00 | 54 | 1012.6 |
| 20260901235002 | 81 | 54 | 7.0 | 14.8 | 0.00 | 0.00 | 0.00 | 57 | 1012.6 |
| 20260901234002 | 81 | 12 | 7.0 | 18.2 | 0.00 | 0.00 | 0.00 | 56 | 1012.5 |
| 20260901233002 | 81 | 22 | 6.1 | 14.8 | 0.00 | 0.00 | 0.00 | 54 | 1012.6 |
| 20260901231002 | 81 | 44 | 6.1 | 12.2 | 0.00 | 0.00 | 0.00 | 52 | 1012.6 |
| 20260901230002 | 82 | 48 | 7.0 | 17.4 | 0.00 | 0.00 | 0.00 | 51 | 1012.5 |
| 20260901225001 | 82 | 52 | 5.2 | 13.0 | 0.00 | 0.00 | 0.00 | 52 | 1012.6 |
| 20260901221002 | 82 | 349 | 7.0 | 14.8 | 0.00 | 0.00 | 0.00 | 53 | 1012.7 |
| 20260901215002 | 83 | 24 | 6.1 | 18.2 | 0.00 | 0.00 | 0.00 | 45 | 1012.7 |
| 20260901214002 | 83 | 9 | 7.8 | 14.8 | 0.00 | 0.00 | 0.00 | 44 | 1012.6 |
| 20260901213002 | 83 | 51 | 6.1 | 14.8 | 0.00 | 0.00 | 0.00 | 43 | 1012.7 |
| 20260901212002 | 84 | 54 | 7.0 | 16.5 | 0.00 | 0.00 | 0.00 | 42 | 1012.8 |
| 20260901211002 | 84 | 69 | 8.7 | 14.8 | 0.00 | 0.00 | 0.00 | 41 | 1012.6 |
| 20260901210004 | 84 | 63 | 7.0 | 14.8 | 0.00 | 0.00 | 0.00 | 41 | 1012.7 |
| 20260901205002 | 84 | 46 | 6.1 | 16.5 | 0.00 | 0.00 | 0.00 | 40 | 1012.7 |
| 20260901203002 | 84 | 58 | 5.2 | 13.9 | 0.00 | 0.00 | 0.00 | 39 | 1012.7 |
| 20260901202002 | 84 | 30 | 6.1 | 16.5 | 0.00 | 0.00 | 0.00 | 39 | 1012.7 |
| 20260901201002 | 84 | 27 | 6.1 | 16.5 | 0.00 | 0.00 | 0.00 | 39 | 1012.7 |
| 20260901200002 | 84 | 38 | 5.2 | 16.5 | 0.00 | 0.00 | 0.00 | 39 | 1012.9 |
| 20260901195002 | 84 | 354 | 5.2 | 16.5 | 0.00 | 0.00 | 0.00 | 39 | 1012.8 |
| 20260901194002 | 84 | 355 | 7.0 | 14.8 | 0.00 | 0.00 | 0.00 | 39 | 1012.8 |
| 20260901193002 | 84 | 4 | 6.1 | 18.2 | 0.00 | 0.00 | 0.00 | 39 | 1012.8 |
| 20260901191002 | 84 | 21 | 6.1 | 14.8 | 0.00 | 0.00 | 0.00 | 39 | 1012.9 |
| 20260901190002 | 83 | 341 | 5.2 | 18.2 | 0.00 | 0.00 | 0.00 | 40 | 1012.9 |
| 20260901185002 | 84 | 7 | 6.1 | 16.5 | 0.00 | 0.00 | 0.00 | 37 | 1012.7 |
| 20260901184002 | 84 | 346 | 5.2 | 14.8 | 0.00 | 0.00 | 0.00 | 37 | 1012.6 |
| 20260901183002 | 83 | 344 | 5.2 | 17.4 | 0.00 | 0.00 | 0.00 | 40 | 1012.7 |
| 20260901182003 | 83 | 347 | 7.0 | 14.8 | 0.00 | 0.00 | 0.00 | 41 | 1012.5 |
| 20260901181002 | 83 | 343 | 7.8 | 14.8 | 0.00 | 0.00 | 0.00 | 40 | 1012.4 |
| 20260901180002 | 83 | 8 | 8.7 | 23.5 | 0.00 | 0.00 | 0.00 | 40 | 1012.4 |
| 20260901175003 | 83 | 7 | 7.0 | 20.0 | 0.00 | 0.00 | 0.00 | 39 | 1012.2 |
| 20260901173003 | 83 | 22 | 5.2 | 13.9 | 0.00 | 0.00 | 0.00 | 39 | 1012.2 |
| 20260901172002 | 83 | 47 | 6.1 | 14.8 | 0.00 | 0.00 | 0.00 | 38 | 1011.9 |
| 20260901171002 | 84 | 44 | 7.0 | 16.5 | 0.00 | 0.00 | 0.00 | 39 | 1011.8 |
| 20260901170002 | 83 | 25 | 7.0 | 13.9 | 0.00 | 0.00 | 0.00 | 39 | 1011.7 |
| 20260901165002 | 83 | 6 | 8.7 | 17.4 | 0.00 | 0.00 | 0.00 | 40 | 1011.8 |
| 20260901164003 | 83 | 19 | 5.2 | 13.9 | 0.00 | 0.00 | 0.00 | 44 | 1011.7 |
| 20260901163003 | 83 | 34 | 7.0 | 17.4 | 0.00 | 0.00 | 0.00 | 42 | 1011.7 |
| 20260901161002 | 83 | 38 | 7.0 | 13.9 | 0.00 | 0.00 | 0.00 | 41 | 1011.8 |
| 20260901160002 | 83 | 30 | 7.0 | 14.8 | 0.00 | 0.00 | 0.00 | 41 | 1011.6 |
| 20260901155002 | 84 | 7 | 7.0 | 14.8 | 0.00 | 0.00 | 0.00 | 39 | 1011.6 |
| 20260901154002 | 84 | 21 | 7.8 | 16.5 | 0.00 | 0.00 | 0.00 | 41 | 1011.8 |
| 20260901153002 | 84 | 71 | 5.2 | 13.0 | 0.00 | 0.00 | 0.00 | 39 | 1011.8 |
| 20260901151002 | 84 | 25 | 8.7 | 16.5 | 0.00 | 0.00 | 0.00 | 36 | 1012.1 |
| 20260901150003 | 84 | 44 | 8.7 | 18.2 | 0.00 | 0.00 | 0.00 | 39 | 1011.9 |
| 20260901145003 | 84 | 28 | 8.7 | 21.7 | 0.00 | 0.00 | 0.00 | 38 | 1012.1 |
| 20260901144003 | 84 | 25 | 9.6 | 20.0 | 0.00 | 0.00 | 0.00 | 41 | 1012.0 |
| 20260901143002 | 84 | 38 | 9.6 | 21.7 | 0.00 | 0.00 | 0.00 | 43 | 1011.8 |
| 20260901142002 | 85 | 10 | 10.4 | 18.2 | 0.00 | 0.00 | 0.00 | 41 | 1011.7 |
| 20260901141002 | 85 | 355 | 13.0 | 26.1 | 0.00 | 0.00 | 0.00 | 39 | 1011.8 |
| 20260901140003 | 85 | 10 | 9.6 | 22.6 | 0.00 | 0.00 | 0.00 | 39 | 1011.7 |
| 20260901134003 | 85 | 26 | 10.4 | 21.7 | 0.00 | 0.00 | 0.00 | 43 | 1012.0 |
| 20260901133003 | 85 | 17 | 8.7 | 16.5 | 0.00 | 0.00 | 0.00 | 42 | 1012.0 |
| 20260901132002 | 85 | 60 | 9.6 | 16.5 | 0.00 | 0.00 | 0.00 | 44 | 1012.2 |
| 20260901131002 | 86 | 48 | 8.7 | 17.4 | 0.00 | 0.00 | 0.00 | 48 | 1012.2 |
| 20260901130002 | 86 | 54 | 11.3 | 18.2 | 0.00 | 0.00 | 0.00 | 39 | 1012.2 |
| 20260901125002 | 86 | 62 | 11.3 | 25.2 | 0.00 | 0.00 | 0.00 | 36 | 1012.3 |
| 20260901124002 | 86 | 56 | 8.7 | 20.0 | 0.00 | 0.00 | 0.00 | 40 | 1012.4 |
| 20260901122003 | 87 | 69 | 10.4 | 26.1 | 0.00 | 0.00 | 0.00 | 38 | 1012.5 |
| 20260901121003 | 87 | 37 | 8.7 | 17.4 | 0.00 | 0.00 | 0.00 | 41 | 1012.6 |
| 20260901120003 | 87 | 65 | 7.0 | 14.8 | 0.00 | 0.00 | 0.00 | 44 | 1012.6 |
| 20260901115003 | 87 | 63 | 6.1 | 18.2 | 0.00 | 0.00 | 0.00 | 44 | 1012.6 |
| 20260901114002 | 88 | 63 | 7.8 | 13.9 | 0.00 | 0.00 | 0.00 | 42 | 1012.6 |
| 20260901113002 | 87 | 70 | 8.7 | 18.2 | 0.00 | 0.00 | 0.00 | 43 | 1012.7 |
| 20260901112002 | 87 | 76 | 7.8 | 13.9 | 0.00 | 0.00 | 0.00 | 48 | 1012.6 |
| 20260901111002 | 85 | 61 | 10.4 | 20.9 | 0.00 | 0.00 | 0.00 | 53 | 1012.8 |
| 20260901110003 | 86 | 58 | 7.8 | 20.0 | 0.00 | 0.00 | 0.00 | 46 | 1012.7 |
| 20260901104003 | 85 | 27 | 8.7 | 20.0 | 0.00 | 0.00 | 0.00 | 52 | 1013.0 |
| 20260901103003 | 86 | 68 | 6.1 | 14.8 | 0.00 | 0.00 | 0.00 | 51 | 1012.8 |
| 20260901102003 | 85 | 66 | 7.8 | 22.6 | 0.00 | 0.00 | 0.00 | 50 | 1012.9 |
| 20260901101002 | 86 | 52 | 7.8 | 17.4 | 0.00 | 0.00 | 0.00 | 52 | 1012.8 |
| 20260901095002 | 85 | 63 | 11.3 | 18.2 | 0.00 | 0.00 | 0.00 | 49 | 1012.8 |
| 20260901094002 | 86 | 63 | 7.8 | 20.9 | 0.00 | 0.00 | 0.00 | 51 | 1012.8 |
| 20260901091002 | 85 | 53 | 8.7 | 18.2 | 0.00 | 0.00 | 0.00 | 55 | 1012.9 |
| 20260901090002 | 85 | 57 | 7.0 | 17.4 | 0.00 | 0.00 | 0.00 | 52 | 1012.9 |
| 20260901085003 | 85 | 68 | 8.7 | 16.5 | 0.00 | 0.00 | 0.00 | 51 | 1012.8 |
| 20260901084003 | 84 | 60 | 7.8 | 18.2 | 0.00 | 0.00 | 0.00 | 51 | 1012.7 |
| 20260901083003 | 84 | 54 | 9.6 | 21.7 | 0.00 | 0.00 | 0.00 | 54 | 1012.9 |
| 20260901082003 | 83 | 62 | 7.0 | 14.8 | 0.00 | 0.00 | 0.00 | 55 | 1012.9 |
| 20260901081002 | 83 | 74 | 5.2 | 9.6 | 0.00 | 0.00 | 0.00 | 58 | 1012.9 |
| 20260901080002 | 83 | 53 | 8.7 | 18.2 | 0.00 | 0.00 | 0.00 | 58 | 1012.9 |
| 20260901075002 | 82 | 63 | 8.7 | 18.2 | 0.00 | 0.00 | 0.00 | 58 | 1012.8 |
| 20260901074002 | 82 | 70 | 10.4 | 17.4 | 0.00 | 0.00 | 0.00 | 57 | 1012.7 |
| 20260901073003 | 83 | 53 | 7.8 | 18.2 | 0.00 | 0.00 | 0.00 | 57 | 1012.7 |
| 20260901072003 | 82 | 61 | 10.4 | 20.9 | 0.00 | 0.00 | 0.00 | 54 | 1012.6 |
| 20260901071003 | 82 | 66 | 7.8 | 17.4 | 0.00 | 0.00 | 0.00 | 56 | 1012.5 |